EW4271 Weather Reports


time (UTC)temp
C
wind
direction
speed
KPH
gust
KPH
rain 1hr
cm
rain 24hr
cm
rain mn
cm
humidity
%
barometer
mb
20260510021023 20 13 4.8 8.0 0.00 0.00 0.00 14 1018.3
20260510020516 20 279 1.6 4.8 0.00 0.00 0.00 15 1018.2
20260510020012 20 5 0.0 3.2 0.00 0.00 0.00 15 1018.2
20260510015522 21 5 1.6 3.2 0.00 0.00 0.00 14 1018.2
20260510015022 21 5 1.6 8.0 0.00 0.00 0.00 14 1018.1
20260510014514 21 216 3.2 8.0 0.00 0.00 0.00 13 1018.0
20260510014029 21 15 3.2 8.0 0.00 0.00 0.00 13 1018.0
20260510013522 21 39 3.2 8.0 0.00 0.00 0.00 13 1018.0
20260510013016 21 19 3.2 4.8 0.00 0.00 0.00 12 1017.9
20260510012550 21 346 3.2 4.8 0.00 0.00 0.00 12 1017.9
20260510012023 22 221 1.6 4.8 0.00 0.00 0.00 13 1017.8
20260510011517 22 221 3.2 4.8 0.00 0.00 0.00 13 1017.7
20260510011009 22 321 1.6 6.4 0.00 0.00 0.00 12 1017.6
20260510010529 22 40 3.2 8.0 0.00 0.00 0.00 12 1017.6
20260510010039 22 327 4.8 9.7 0.00 0.00 0.00 12 1017.6
20260510005511 22 269 1.6 17.7 0.00 0.00 0.00 12 1017.6
20260510005045 22 66 4.8 17.7 0.00 0.00 0.00 12 1017.6
20260510004517 22 36 3.2 8.0 0.00 0.00 0.00 12 1017.5
20260510004011 22 271 3.2 8.0 0.00 0.00 0.00 12 1017.4
20260510003525 22 275 1.6 9.7 0.00 0.00 0.00 12 1017.6
20260510003018 23 57 3.2 20.9 0.00 0.00 0.00 12 1017.4
20260510002511 23 136 1.6 20.9 0.00 0.00 0.00 12 1017.5
20260510002009 23 48 4.8 17.7 0.00 0.00 0.00 12 1017.3
20260510001525 23 219 6.4 17.7 0.00 0.00 0.00 12 1017.3
20260510001039 23 26 3.2 12.9 0.00 0.00 0.00 11 1017.4
20260510000532 23 343 6.4 19.3 0.00 0.00 0.00 11 1017.6
20260510000043 24 355 8.0 19.3 0.00 0.00 0.00 11 1017.6
20260509235515 24 51 3.2 11.3 0.00 0.00 0.00 11 1017.6
20260509235028 24 233 4.8 9.7 0.00 0.00 0.00 11 1017.6
20260509234522 23 57 4.8 17.7 0.00 0.00 0.00 11 1017.6
20260509234037 23 15 8.0 17.7 0.00 0.00 0.00 11 1017.7
20260509233510 23 255 6.4 19.3 0.00 0.00 0.00 11 1017.7
20260509233044 23 39 4.8 16.1 0.00 0.00 0.00 11 1017.8
20260509232521 23 36 8.0 16.1 0.00 0.00 0.00 10 1017.6
20260509232014 23 14 6.4 16.1 0.00 0.00 0.00 10 1017.6
20260509231529 23 333 3.2 14.5 0.00 0.00 0.00 11 1017.6
20260509231041 23 313 3.2 14.5 0.00 0.00 0.00 11 1017.5
20260509230536 24 338 4.8 17.7 0.00 0.00 0.00 11 1017.8
20260509230029 24 224 4.8 17.7 0.00 0.00 0.00 10 1017.6
20260509225523 24 340 4.8 14.5 0.00 0.00 0.00 11 1017.4
20260509225037 24 61 4.8 14.5 0.00 0.00 0.00 11 1017.7
20260509224529 24 13 4.8 14.5 0.00 0.00 0.00 11 1017.7
20260509224027 24 290 4.8 9.7 0.00 0.00 0.00 11 1017.5
20260509223519 24 300 4.8 17.7 0.00 0.00 0.00 11 1017.7
20260509223013 24 275 8.0 17.7 0.00 0.00 0.00 11 1017.6
20260509222546 24 53 8.0 17.7 0.00 0.00 0.00 11 1017.4
20260509222020 24 145 3.2 14.5 0.00 0.00 0.00 12 1017.8
20260509221513 24 355 4.8 20.9 0.00 0.00 0.00 11 1017.9
20260509221047 25 48 6.4 20.9 0.00 0.00 0.00 11 1017.8
20260509220519 25 346 6.4 14.5 0.00 0.00 0.00 11 1017.7
20260509220013 25 46 6.4 14.5 0.00 0.00 0.00 11 1017.9
20260509215511 25 270 4.8 14.5 0.00 0.00 0.00 11 1017.7
20260509215046 25 79 3.2 19.3 0.00 0.00 0.00 12 1017.7
20260509214520 25 39 9.7 19.3 0.00 0.00 0.00 11 1017.9
20260509214013 25 80 3.2 22.5 0.00 0.00 0.00 11 1018.0
20260509213527 25 27 4.8 22.5 0.00 0.00 0.00 11 1018.1
20260509213040 25 10 4.8 17.7 0.00 0.00 0.00 11 1018.1
20260509212511 25 26 6.4 14.5 0.00 0.00 0.00 12 1018.1
20260509212025 24 32 6.4 19.3 0.00 0.00 0.00 12 1018.2
20260509211535 25 62 6.4 19.3 0.00 0.00 0.00 11 1018.1
20260509211010 25 299 8.0 19.3 0.00 0.00 0.00 11 1018.4
20260509210523 26 298 6.4 24.1 0.00 0.00 0.00 11 1018.2
20260509210036 26 276 8.0 24.1 0.00 0.00 0.00 10 1018.4
20260509205549 26 317 6.4 14.5 0.00 0.00 0.00 11 1018.4
20260509205017 26 201 6.4 14.5 0.00 0.00 0.00 11 1018.6
20260509204510 26 296 6.4 14.5 0.00 0.00 0.00 11 1018.5
20260509204028 25 57 4.8 11.3 0.00 0.00 0.00 12 1018.6
20260509203517 25 259 6.4 12.9 0.00 0.00 0.00 11 1018.7
20260509203010 25 321 3.2 14.5 0.00 0.00 0.00 12 1018.8
20260509202524 25 220 4.8 14.5 0.00 0.00 0.00 11 1018.8
20260509202019 25 297 6.4 14.5 0.00 0.00 0.00 12 1018.9
20260509201533 24 82 9.7 16.1 0.00 0.00 0.00 14 1019.1
20260509201025 23 338 6.4 14.5 0.00 0.00 0.00 13 1019.0
20260509200542 23 163 6.4 14.5 0.00 0.00 0.00 13 1019.2
20260509200016 23 313 6.4 16.1 0.00 0.00 0.00 13 1019.2
20260509195510 24 355 8.0 16.1 0.00 0.00 0.00 12 1019.3
20260509195023 25 348 8.0 16.1 0.00 0.00 0.00 12 1019.4
20260509194536 25 108 4.8 16.1 0.00 0.00 0.00 12 1019.2
20260509194010 25 71 6.4 17.7 0.00 0.00 0.00 12 1019.4
20260509193524 25 348 6.4 17.7 0.00 0.00 0.00 13 1019.3
20260509193017 25 9 3.2 14.5 0.00 0.00 0.00 12 1019.3
20260509192514 25 298 8.0 14.5 0.00 0.00 0.00 12 1019.3
20260509192028 25 291 4.8 20.9 0.00 0.00 0.00 13 1019.4
20260509191542 25 138 4.8 14.5 0.00 0.00 0.00 12 1019.4
20260509191011 25 257 8.0 20.9 0.00 0.00 0.00 12 1019.4
20260509190524 25 190 6.4 20.9 0.00 0.00 0.00 12 1019.4
20260509190017 25 142 4.8 14.5 0.00 0.00 0.00 13 1019.5
20260509185531 25 35 6.4 12.9 0.00 0.00 0.00 12 1019.7
20260509185024 25 13 3.2 25.7 0.00 0.00 0.00 13 1019.5
20260509184518 24 180 9.7 25.7 0.00 0.00 0.00 12 1019.5
20260509184013 24 266 3.2 14.5 0.00 0.00 0.00 13 1019.6
20260509183531 24 219 4.8 14.5 0.00 0.00 0.00 13 1019.7
20260509183024 23 331 4.8 14.5 0.00 0.00 0.00 13 1019.8
20260509182518 23 161 6.4 19.3 0.00 0.00 0.00 13 1019.9
20260509182011 23 81 8.0 19.3 0.00 0.00 0.00 13 1019.9
20260509181524 22 126 4.8 11.3 0.00 0.00 0.00 14 1020.1
20260509181018 23 49 6.4 12.9 0.00 0.00 0.00 13 1020.0
20260509180513 22 257 3.2 11.3 0.00 0.00 0.00 13 1020.2
20260509180028 22 340 6.4 11.3 0.00 0.00 0.00 13 1020.4
20260509175523 22 54 3.2 17.7 0.00 0.00 0.00 13 1020.3
20260509175017 22 44 11.3 17.7 0.00 0.00 0.00 13 1020.6
20260509174511 22 327 3.2 12.9 0.00 0.00 0.00 13 1020.5
20260509174025 22 302 4.8 12.9 0.00 0.00 0.00 14 1020.4
20260509173518 22 346 8.0 16.1 0.00 0.00 0.00 14 1020.4
20260509173033 22 82 6.4 17.7 0.00 0.00 0.00 13 1020.6
20260509172544 22 124 4.8 17.7 0.00 0.00 0.00 14 1020.5
20260509172017 22 39 6.4 30.6 0.00 0.00 0.00 14 1020.6
20260509171511 22 43 8.0 17.7 0.00 0.00 0.00 14 1020.6
20260509171028 22 304 3.2 25.7 0.00 0.00 0.00 14 1020.6
20260509170522 22 64 14.5 25.7 0.00 0.00 0.00 13 1020.5
20260509170016 22 58 4.8 12.9 0.00 0.00 0.00 14 1021.0
20260509165509 22 208 6.4 12.9 0.00 0.00 0.00 14 1020.7
20260509165023 23 309 6.4 12.9 0.00 0.00 0.00 14 1020.8
20260509164528 23 250 6.4 19.3 0.00 0.00 0.00 17 1020.6
20260509164013 22 150 9.7 19.3 0.00 0.00 0.00 17 1020.5
20260509163528 22 145 6.4 17.7 0.00 0.00 0.00 18 1020.6
20260509163021 22 59 6.4 17.7 0.00 0.00 0.00 19 1020.8
20260509162535 22 159 6.4 19.3 0.00 0.00 0.00 17 1020.7
20260509162025 22 350 6.4 20.9 0.00 0.00 0.00 16 1020.8
20260509161522 22 55 6.4 20.9 0.00 0.00 0.00 15 1020.7
20260509161017 21 300 6.4 16.1 0.00 0.00 0.00 16 1020.6
20260509160510 21 280 8.0 16.1 0.00 0.00 0.00 15 1020.8
20260509160024 21 91 4.8 12.9 0.00 0.00 0.00 17 1020.6
20260509155517 21 360 4.8 19.3 0.00 0.00 0.00 19 1020.7
20260509155010 21 210 8.0 19.3 0.00 0.00 0.00 17 1020.6
20260509154524 21 45 4.8 8.0 0.00 0.00 0.00 19 1020.7
20260509154021 20 89 4.8 12.9 0.00 0.00 0.00 20 1020.6
20260509153514 20 178 3.2 12.9 0.00 0.00 0.00 22 1020.6
20260509153028 20 308 3.2 11.3 0.00 0.00 0.00 22 1020.6
20260509152522 19 126 1.6 14.5 0.00 0.00 0.00 23 1020.7
20260509152015 19 83 1.6 6.4 0.00 0.00 0.00 24 1020.6
20260509151528 19 49 1.6 4.8 0.00 0.00 0.00 25 1020.8
20260509151022 18 46 1.6 9.7 0.00 0.00 0.00 24 1020.8
20260509150515 18 146 1.6 9.7 0.00 0.00 0.00 24 1020.9
20260509150048 18 49 4.8 6.4 0.00 0.00 0.00 25 1020.9
20260509145521 18 155 1.6 8.0 0.00 0.00 0.00 26 1020.9
20260509145019 18 155 6.4 9.7 0.00 0.00 0.00 25 1020.9
20260509144514 18 129 3.2 6.4 0.00 0.00 0.00 26 1021.0
20260509144010 18 53 3.2 4.8 0.00 0.00 0.00 27 1021.1
20260509143545 17 151 1.6 8.0 0.00 0.00 0.00 27 1020.9
20260509143011 17 136 3.2 8.0 0.00 0.00 0.00 27 1020.9
20260509033126 17 5 4.8 6.4 0.00 0.00 0.00 23 1019.4
20260509032639 17 313 0.0 0.0 0.00 0.00 0.00 22 1019.4
20260509032134 17 313 0.0 0.0 0.00 0.00 0.00 23 1019.3
20260509031647 18 313 0.0 0.0 0.00 0.00 0.00 22 1019.3
20260509031139 18 313 0.0 1.6 0.00 0.00 0.00 22 1019.2
20260509030633 18 293 0.0 6.4 0.00 0.00 0.00 21 1019.2
20260509030131 18 328 3.2 6.4 0.00 0.00 0.00 21 1019.2
20260509025624 18 335 1.6 6.4 0.00 0.00 0.00 21 1019.1
20260509025137 18 343 1.6 4.8 0.00 0.00 0.00 21 1019.0
20260509024632 18 326 1.6 9.7 0.00 0.00 0.00 20 1018.9
20260509024125 19 263 3.2 9.7 0.00 0.00 0.00 20 1018.9
20260509023637 19 315 3.2 12.9 0.00 0.00 0.00 20 1018.9
20260509023151 19 51 3.2 12.9 0.00 0.00 0.00 20 1018.8
20260509022625 19 350 4.8 12.9 0.00 0.00 0.00 19 1018.7
20260509022123 19 78 3.2 12.9 0.00 0.00 0.00 20 1018.6
20260509021637 19 29 4.8 11.3 0.00 0.00 0.00 19 1018.5